Weather History for Hurlburt Field, FL

Change the Weather History Date:

Tuesday, November 20, 2012

  Actual Average Record
Temperature  
Mean Temperature 56 °F -  
Max Temperature 69 °F 67 °F 77 °F (1998)
Min Temperature 43 °F 49 °F 29 °F (2014)
Degree Days  
Heating Degree Days 9    
Growing Degree Days 6 (Base 50)    
Moisture  
Dew Point 54 °F    
Average Humidity 75    
Maximum Humidity 98    
Minimum Humidity 60    
Precipitation  
Precipitation 0.00 in - - ()
Sea Level Pressure  
Sea Level Pressure 30.13 in    
Wind  
Wind Speed 5 mph (North)    
Max Wind Speed 9 mph    
Max Gust Speed -    
Visibility 10 miles    
Events Rain    
Averages and records for this station are not official NWS values.
T = Trace of Precipitation, MM = Missing Value Source: NWS Daily Summary

Daily Weather History Graph

Daily Weather History Graph

Search for Another Location

Airport:

Trip Planner

Search our weather history database for the weather conditions in past years. The results will help you decide how hot, cold, wet, or windy it might be!

Date:

Astronomy

Nov. 20, 2012 Rise Set
Actual Time 6:17 AM CST 4:47 PM CST
Civil Twilight 5:51 AM CST 5:13 PM CST
Nautical Twilight 5:22 AM CST 5:42 PM CST
Astronomical Twilight 4:53 AM CST 6:11 PM CST
Moon 12:05 PM CST (11/20) No Moon Set
Length of Visible Light 11h 21m
Length of Day
10h 30m
First Quarter, 51% of the Moon is Illuminated
Nov 20
First Quarter
Nov 28
Full
Dec 6
Last Quarter
Dec 13
New
Dec 19
First Quarter

Hourly Weather History & Observations

Time (CST) Temp. Windchill Dew Point Humidity Pressure Visibility Wind Dir Wind Speed Gust Speed Precip Events Conditions
12:55 AM 45.3 °F 43.0 °F 43.9 °F 95% 30.16 in 10.0 mi North 4.6 mph - N/A   Clear
1:55 AM 44.1 °F 40.8 °F 43.0 °F 96% 30.15 in 10.0 mi North 5.8 mph - N/A   Clear
2:55 AM 44.1 °F 40.1 °F 43.0 °F 96% 30.15 in 10.0 mi North 6.9 mph - N/A   Clear
3:55 AM 43.9 °F 39.9 °F 43.2 °F 97% 30.14 in 10.0 mi North 6.9 mph - N/A   Clear
4:55 AM 44.8 °F 41.0 °F 44.1 °F 97% 30.15 in 10.0 mi North 6.9 mph - N/A   Clear
5:55 AM 44.6 °F 40.2 °F 43.9 °F 97% 30.16 in 10.0 mi North 8.1 mph - N/A   Clear
6:55 AM 46.4 °F 42.9 °F 45.9 °F 98% 30.18 in 10.0 mi North 6.9 mph - N/A   Clear
7:55 AM 52.3 °F - 49.8 °F 91% 30.18 in 10.0 mi North 6.9 mph - N/A   Clear
8:55 AM 60.6 °F - 53.4 °F 77% 30.19 in 10.0 mi North 4.6 mph - N/A   Clear
9:55 AM 66.7 °F - 55.8 °F 68% 30.18 in 10.0 mi Calm Calm - 0.00 in Rain Light Rain
10:15 AM 66.2 °F - 55.4 °F 68% 30.17 in 10.0 mi Calm Calm - N/A   Mostly Cloudy
10:24 AM 66.2 °F - 55.4 °F 68% 30.17 in 10.0 mi Calm Calm - N/A Rain Light Rain
10:34 AM 68.0 °F - 55.4 °F 64% 30.16 in 10.0 mi Calm Calm - N/A   Mostly Cloudy
10:45 AM 66.2 °F - 55.4 °F 68% 30.16 in 10.0 mi ESE 3.5 mph - N/A   Light Drizzle
10:51 AM 68.0 °F - 55.4 °F 64% 30.16 in 10.0 mi Calm Calm - N/A   Light Drizzle
10:55 AM 67.3 °F - 56.5 °F 68% 30.16 in 10.0 mi Calm Calm - 0.00 in   Mostly Cloudy
10:56 AM 68.0 °F - 57.2 °F 68% 30.16 in 10.0 mi Calm Calm - N/A   Mostly Cloudy
11:06 AM 66.2 °F - 57.2 °F 73% 30.15 in 10.0 mi South 5.8 mph - N/A   Light Drizzle
11:16 AM 68.0 °F - 57.2 °F 68% 30.15 in 10.0 mi South 5.8 mph - N/A   Mostly Cloudy
11:19 AM 68.0 °F - 57.2 °F 68% 30.15 in 10.0 mi South 5.8 mph - N/A Rain Light Rain
11:33 AM 68.0 °F - 57.2 °F 68% 30.14 in 10.0 mi South 4.6 mph - N/A Rain Light Rain
11:34 AM 68.0 °F - 57.2 °F 68% 30.14 in 10.0 mi SSE 6.9 mph - N/A   Mostly Cloudy
11:37 AM 68.0 °F - 57.2 °F 68% 30.14 in 10.0 mi South 5.8 mph - N/A Rain Light Rain
11:54 AM 66.2 °F - 57.2 °F 73% 30.13 in 10.0 mi South 5.8 mph - N/A   Mostly Cloudy
11:55 AM 66.9 °F - 57.0 °F 70% 30.13 in 10.0 mi South 6.9 mph - 0.00 in   Light Drizzle
11:57 AM 66.2 °F - 57.2 °F 73% 30.13 in 10.0 mi South 8.1 mph - N/A   Mostly Cloudy
12:00 PM 66.2 °F - 57.2 °F 73% 30.13 in 10.0 mi South 6.9 mph - N/A   Mostly Cloudy
12:01 PM 66.2 °F - 57.2 °F 73% 30.12 in 10.0 mi South 6.9 mph - N/A   Mostly Cloudy
12:05 PM 66.2 °F - 57.2 °F 73% 30.12 in 10.0 mi South 8.1 mph - N/A   Mostly Cloudy
12:11 PM 68.0 °F - 57.2 °F 68% 30.12 in 10.0 mi South 6.9 mph - N/A Rain Light Rain
12:20 PM 66.2 °F - 57.2 °F 73% 30.12 in 10.0 mi South 5.8 mph - N/A   Mostly Cloudy
12:28 PM 68.0 °F - 57.2 °F 68% 30.12 in 10.0 mi Calm Calm - N/A Rain Light Rain
12:33 PM 68.0 °F - 57.2 °F 68% 30.12 in 10.0 mi Calm Calm - N/A Rain Light Rain
12:50 PM 69.8 °F - 57.2 °F 64% 30.10 in 10.0 mi South 8.1 mph - N/A   Mostly Cloudy
12:54 PM 69.8 °F - 57.2 °F 64% 30.11 in 10.0 mi SSW 5.8 mph - N/A   Mostly Cloudy
12:55 PM 69.1 °F - 57.6 °F 67% 30.11 in 10.0 mi SW 5.8 mph - 0.00 in   Mostly Cloudy
1:33 PM 66.2 °F - 57.2 °F 73% 30.09 in 10.0 mi SW 8.1 mph - N/A   Mostly Cloudy
1:55 PM 67.5 °F - 57.0 °F 69% 30.09 in 10.0 mi SW 5.8 mph - N/A   Mostly Cloudy
2:50 PM 68.0 °F - 57.2 °F 68% 30.09 in 10.0 mi West 3.5 mph - N/A Rain Light Rain
2:55 PM 68.2 °F - 57.2 °F 68% 30.09 in 10.0 mi Calm Calm - 0.00 in Rain Light Rain
2:59 PM 68.0 °F - 57.2 °F 68% 30.09 in 10.0 mi WSW 3.5 mph - N/A   Mostly Cloudy
3:25 PM 66.2 °F - 55.4 °F 68% 30.09 in 10.0 mi North 6.9 mph - N/A   Light Drizzle
3:39 PM 68.0 °F - 53.6 °F 60% 30.09 in 10.0 mi North 9.2 mph - N/A   Mostly Cloudy
3:43 PM 68.0 °F - 53.6 °F 60% 30.09 in 10.0 mi NNE 6.9 mph - N/A   Light Drizzle
3:45 PM 66.2 °F - 53.6 °F 64% 30.09 in 10.0 mi NNE 6.9 mph - N/A   Overcast
3:55 PM 66.7 °F - 54.0 °F 63% 30.09 in 10.0 mi NNE 5.8 mph - 0.00 in   Overcast
4:08 PM 66.2 °F - 53.6 °F 64% 30.09 in 10.0 mi NE 3.5 mph - N/A Rain Light Rain
4:17 PM 66.2 °F - 55.4 °F 68% 30.09 in 10.0 mi North 6.9 mph - N/A   Overcast
4:55 PM 63.5 °F - 55.2 °F 74% 30.09 in 10.0 mi North 4.6 mph - 0.00 in   Mostly Cloudy
5:55 PM 61.2 °F - 54.0 °F 77% 30.11 in 10.0 mi North 5.8 mph - N/A   Overcast
6:55 PM 57.6 °F - 53.2 °F 85% 30.13 in 10.0 mi North 5.8 mph - N/A   Clear
7:55 PM 54.5 °F - 52.0 °F 91% 30.13 in 10.0 mi North 4.6 mph - N/A   Clear
8:55 PM 53.6 °F - 52.0 °F 94% 30.12 in 10.0 mi North 3.5 mph - N/A   Scattered Clouds
9:55 PM 52.9 °F - 51.8 °F 96% 30.14 in 10.0 mi North 5.8 mph - N/A   Overcast
10:55 PM 54.1 °F - 52.5 °F 94% 30.14 in 10.0 mi North 5.8 mph - N/A   Mostly Cloudy
11:55 PM 52.5 °F - 51.1 °F 95% 30.13 in 10.0 mi North 5.8 mph - N/A   Mostly Cloudy